Weather in Uldurga

Russia / Republic of Buryatia     52°13′19″N   110°32′19″E
temp.,
°C
wind,
m/s
gust,
m/s
humid.,
%
clouds,
%
prec.,
mm/h
press.,
hPa
HPBL,
m
9 may, sun
sun923:00+3wnw22470 0.0 101013
02:00+2wsw225424 0.0 101012
05:000wsw226257 0.0 101113
08:00+5w3548100 0.0 1010379
11:00+9w4545100 0.0 10091410
14:00+10wnw6650100 0.3 10071558
17:00+9w455962 0.6 1007976
20:00+6wsw337194 0.7 100729
10 may, mon
mon1023:00+5wnw1175100 0.0 100810
02:00+3ne1181100 0.0 100810
05:00+2n2395100 1.9 1009268
08:00+2n2499100 4.4 1010365
11:00+3n1493100 1.7 1010402
14:00+6e137599 2.3 1009811
17:00+4wsw4594100 0.8 1010664
20:00+4nw3592100 1.3 1010589
11 may, tue
tue1123:00+3wnw3494100 0.0 1011230
02:00+2nw229286 0.2 1012169
05:00+1wnw229721 0.0 101252
08:00+4wnw337944 0.0 1012447
11:00+9w555755 0.1 10101317
14:00+11nw884960 2.3 10081807
17:00+10nw89485 0.1 10091581
20:00+6nw59645 0.1 1011341
12 may, wed
wed1223:00+3w36792 0.0 1013101
02:00+1w34865 0.0 101370
05:000wsw23925 0.0 101332
08:00+6w356626 0.0 1011459
11:00+11wnw674078 0.0 10082181
14:00+13w8936100 0.0 10062467
17:00+12w7835100 0.0 10042299
20:00+8nnw595990 0.1 1007504
13 may, thu
thu1323:00+3nw387743 0.0 1009231
02:00+2wnw2277100 0.0 101023
05:000w58845 0.0 1012211
08:00+4nw79475 0.0 10121179
11:00+7nw7833100 0.1 10112740
14:00+8nw9928100 0.1 10113210
17:00+8nnw992621 0.0 10132590
20:00+4nw611390 0.0 1015521